• Join FlightAware (Why Join?)
  • Login
  • US Flag 
01:45PM EDT


 

Airport Tracker/Info


-or-


 

Live Flight TrackerFlight Track Log ✈ N6068Y ✈ 01-Nov-2013 ✈ KVLL - KCHU

Flight Track Log - Related Links

Times and Time Zones

All times are in EDT time to prevent confusion due to time zone crossing. See the N6068Y flight status page for this flight to view local times or setup timezone preferences in your user account.

Time Position Orientation Groundspeed Altitude Reporting Facility
EDT Latitude Longitude Course Direction KTS MPH feet Rate Location/Type
12:07PM 42.5419 -83.1967 350° North 92 106 1,100  Level Cleveland Center
12:08PM 42.5706 -83.2033 350° North 129 148 1,600 600 Climbing Cleveland Center
12:09PM 42.5764 -83.2014 14° North 125 144 1,900 840 Climbing Cleveland Center
12:09PM 42.5986 -83.1931 15° North 128 147 2,300 720 Climbing Cleveland Center
12:10PM 42.6108 -83.1839 29° Northeast 130 150 2,700 780 Climbing Cleveland Center
12:10PM 42.6281 -83.1661 37° Northeast 130 150 3,100 720 Climbing Cleveland Center
12:11PM 42.6414 -83.1639 North 128 147 3,500 660 Climbing Cleveland Center
12:11PM 42.6561 -83.1814 319° Northwest 105 121 3,800 840 Climbing Cleveland Center
12:12PM 42.6664 -83.1808 North 115 132 4,400 720 Climbing Cleveland Center
12:12PM 42.6811 -83.1847 349° North 97 112 4,500 540 Climbing Cleveland Center
12:13PM 42.6972 -83.1939 337° Northwest 103 119 5,000 480 Climbing Cleveland Center
12:13PM 42.7083 -83.2114 311° West 100 115 5,100 540 Climbing Cleveland Center
12:14PM 42.7200 -83.2239 322° Northwest 106 122 5,600 840 Climbing Cleveland Center
12:14PM 42.7256 -83.2336 308° West 106 122 5,800 780 Climbing Cleveland Center
12:15PM 42.7347 -83.2553 300° West 93 107 6,400 600 Climbing Cleveland Center
12:15PM 42.7397 -83.2669 300° West 94 108 6,500 540 Climbing Cleveland Center
12:16PM 42.7525 -83.2833 317° Northwest 99 114 7,000 660 Climbing Cleveland Center
12:17PM 42.7747 -83.3083 320° Northwest 98 113 7,700 600 Climbing Cleveland Center
12:18PM 42.8006 -83.3269 332° Northwest 106 122 8,300 480 Climbing Cleveland Center
12:19PM 42.8258 -83.3536 322° Northwest 106 122 8,800 480 Climbing Cleveland Center
12:20PM 42.8528 -83.3717 334° Northwest 108 124 9,400 540 Climbing Cleveland Center
12:21PM 42.8858 -83.3794 350° North 113 130 10,000 360 Climbing Cleveland Center
12:22PM 42.9147 -83.3803 359° North 114 131 10,200 120 Climbing Cleveland Center
12:23PM 42.9397 -83.4056 323° Northwest 118 136 10,300 -60 Climbing Cleveland Center
12:24PM 42.9422 -83.4500 274° West 118 136 10,100 -120 Descending Cleveland Center
12:25PM 42.9469 -83.5050 277° West 125 144 10,100  Level Cleveland Center
12:26PM 42.9531 -83.5514 280° West 127 146 10,100 -60 Level Cleveland Center
12:27PM 42.9617 -83.6067 282° West 138 159 10,000 -60 Descending Cleveland Center
12:28PM 42.9678 -83.6572 279° West 129 148 10,000  Level Cleveland Center
12:29PM 42.9722 -83.7072 277° West 134 154 10,000  Level Cleveland Center
12:30PM 42.9761 -83.7497 277° West 133 153 10,000  Level Cleveland Center
12:31PM 42.9842 -83.8083 281° West 131 151 10,000  Level Cleveland Center
12:32PM 42.9900 -83.8575 279° West 134 154 10,000  Level Cleveland Center
12:33PM 42.9958 -83.9100 279° West 131 151 10,000  Level Cleveland Center
12:34PM 43.0011 -83.9572 279° West 129 148 10,000  Level Cleveland Center
12:36PM 43.0069 -84.0089 279° West 129 148 10,000  Level Cleveland Center
12:37PM 43.0125 -84.0586 279° West 132 152 10,000  Level Cleveland Center
12:38PM 43.0189 -84.1122 279° West 135 155 10,000  Level Cleveland Center
12:39PM 43.0314 -84.1594 290° West 136 157 10,000 -60 Level Cleveland Center
12:40PM 43.0356 -84.2131 276° West 134 154 9,900 -60 Descending Cleveland Center
12:41PM 43.0425 -84.2619 281° West 133 153 9,900  Level Cleveland Center
12:42PM 43.0478 -84.3156 278° West 133 153 9,900  Level Cleveland Center
12:43PM 43.0525 -84.3672 277° West 130 150 9,900  Level Cleveland Center
12:43PM 43.0581 -84.3922 287° West 132 152 9,900  Level Chicago Center
12:44PM 43.0628 -84.4400 278° West 131 151 9,900  Level Chicago Center
12:45PM 43.0675 -84.4847 278° West 126 145 9,900  Level Chicago Center
12:46PM 43.0717 -84.5439 276° West 129 148 9,900  Level Chicago Center
12:47PM 43.0781 -84.5903 281° West 128 147 9,900  Level Chicago Center
12:48PM 43.0811 -84.6378 275° West 126 145 9,900  Level Chicago Center
12:50PM 43.0878 -84.6844 281° West 126 145 9,900  Level Chicago Center
12:51PM 43.0933 -84.7300 279° West 124 143 9,900  Level Chicago Center
12:52PM 43.0978 -84.7778 277° West 126 145 9,900  Level Chicago Center
12:53PM 43.1044 -84.8344 279° West 126 145 9,900  Level Chicago Center
12:54PM 43.1086 -84.8828 277° West 128 147 9,900  Level Chicago Center
12:55PM 43.1136 -84.9306 278° West 127 146 9,900  Level Chicago Center
12:56PM 43.1186 -84.9778 278° West 127 146 9,900  Level Chicago Center
12:57PM 43.1236 -85.0258 278° West 128 147 10,000  Climbing Chicago Center
12:58PM 43.1294 -85.0844 278° West 128 147 9,900 -60 Descending Chicago Center
12:59PM 43.1347 -85.1297 279° West 125 144 9,900  Level Chicago Center
01:00PM 43.1392 -85.1772 277° West 125 144 9,900  Level Chicago Center
01:01PM 43.1433 -85.2281 276° West 128 147 9,900  Level Chicago Center
01:02PM 43.1486 -85.2758 279° West 127 146 10,000  Climbing Chicago Center
01:03PM 43.1536 -85.3247 278° West 128 147 10,000  Level Chicago Center
01:04PM 43.1578 -85.3739 277° West 130 150 10,000  Level Chicago Center
01:05PM 43.1639 -85.4342 278° West 133 153 10,000  Level Chicago Center
01:06PM 43.1692 -85.4853 278° West 136 157 10,000  Level Chicago Center
01:07PM 43.1739 -85.5358 277° West 136 157 10,000  Level Chicago Center
01:08PM 43.1792 -85.5853 278° West 134 154 10,000  Level Chicago Center
01:09PM 43.1842 -85.6328 278° West 128 147 10,000 -60 Level Chicago Center
01:10PM 43.1886 -85.6825 277° West 131 151 9,900 -60 Descending Chicago Center
01:11PM 43.1942 -85.7417 277° West 131 151 9,900  Level Chicago Center
01:12PM 43.1994 -85.7944 278° West 139 160 10,000  Climbing Chicago Center
01:13PM 43.2042 -85.8481 277° West 142 163 10,000 -60 Level Chicago Center
01:14PM 43.2094 -85.8997 278° West 140 161 9,900  Descending Chicago Center
01:15PM 43.2136 -85.9522 276° West 140 161 10,100 60 Climbing Chicago Center
01:16PM 43.2194 -86.0161 277° West 142 163 10,100  Level Chicago Center
01:17PM 43.2244 -86.0689 277° West 141 162 10,100  Level Chicago Center
01:18PM 43.2292 -86.1206 277° West 139 160 10,100  Level Chicago Center
01:19PM 43.2344 -86.1736 278° West 140 161 10,100  Level Chicago Center
01:21PM 43.2389 -86.2261 277° West 140 161 10,100  Level Chicago Center
01:22PM 43.2456 -86.2894 278° West 140 161 10,100  Level Chicago Center
01:23PM 43.2494 -86.3414 276° West 138 159 10,100  Level Chicago Center
01:24PM 43.2542 -86.3942 277° West 139 160 10,100  Level Chicago Center
01:25PM 43.2597 -86.4475 278° West 140 161 10,200  Climbing Chicago Center
01:26PM 43.2636 -86.4969 276° West 132 152 10,200  Level Chicago Center
01:27PM 43.2681 -86.5464 277° West 132 152 10,300  Climbing Chicago Center
01:28PM 43.2736 -86.6086 277° West 137 158 10,300  Level Chicago Center
01:29PM 43.2775 -86.6619 276° West 142 163 10,300 60 Level Chicago Center
01:30PM 43.2822 -86.7139 277° West 137 158 10,500 240 Climbing Chicago Center
01:31PM 43.2869 -86.7619 278° West 129 148 10,800 300 Climbing Chicago Center
01:32PM 43.2906 -86.8039 277° West 113 130 11,200 360 Climbing Chicago Center
01:33PM 43.2944 -86.8433 278° West 104 120 11,600 360 Climbing Chicago Center
01:34PM 43.2981 -86.8878 276° West 98 113 12,000 180 Climbing Chicago Center
01:35PM 43.3019 -86.9306 277° West 111 128 12,000  Level Chicago Center
01:36PM 43.3044 -86.9756 274° West 118 136 12,000  Level Chicago Center
01:37PM 43.3097 -87.0231 279° West 124 143 12,100  Climbing Chicago Center
01:38PM 43.3136 -87.0706 276° West 125 144 12,000  Descending Chicago Center
01:39PM 43.3183 -87.1283 276° West 128 147 12,100  Climbing Chicago Center
01:40PM 43.3219 -87.1775 276° West 129 148 12,100  Level Chicago Center
01:41PM 43.3261 -87.2261 277° West 129 148 12,100  Level Chicago Center
01:42PM 43.3308 -87.2750 278° West 130 150 12,100  Level Chicago Center
01:43PM 43.3342 -87.3253 275° West 132 152 12,100  Level Chicago Center
01:44PM 43.3378 -87.3792 275° West 129 148 12,100 -60 Level Chicago Center
01:45PM 43.3419 -87.4303 276° West 133 153 12,000 -120 Descending Chicago Center
01:47PM 43.3500 -87.5167 277° West 130 150 11,900  Descending KMKE
01:48PM 43.3506 -87.5481 271° West 130 150 12,000 60 Climbing Minneapolis Center
01:48PM 43.3550 -87.5858 279° West 127 146 12,000  Level Chicago Center
01:49PM 43.3589 -87.6344 276° West 127 146 12,000  Level Chicago Center
01:51PM 43.3625 -87.6828 276° West 127 146 12,000  Level Chicago Center
01:52PM 43.3656 -87.7319 275° West 129 148 12,000  Level Chicago Center
01:53PM 43.3706 -87.7822 278° West 132 152 12,000  Level Chicago Center
01:54PM 43.3742 -87.8442 275° West 135 155 12,000  Level Chicago Center
01:55PM 43.3781 -87.8961 276° West 137 158 12,000  Level Chicago Center
01:56PM 43.3828 -87.9469 277° West 134 154 12,000  Level Chicago Center
01:57PM 43.3867 -87.9992 276° West 137 158 12,000  Level Chicago Center
01:58PM 43.3908 -88.0525 276° West 138 159 12,000  Level Chicago Center
01:59PM 43.3947 -88.1139 275° West 136 157 12,000  Level Chicago Center
02:00PM 43.3992 -88.1661 277° West 137 158 12,000  Level Chicago Center
02:01PM 43.4031 -88.2178 276° West 136 157 12,000  Level Chicago Center
02:02PM 43.4067 -88.2694 276° West 136 157 12,000  Level Chicago Center
02:03PM 43.4103 -88.3181 276° West 129 148 12,000  Level Chicago Center
02:04PM 43.4144 -88.3794 275° West 134 154 12,000  Level Chicago Center
02:05PM 43.4183 -88.4328 276° West 138 159 12,000  Level Chicago Center
02:06PM 43.4233 -88.4883 277° West 141 162 12,000  Level Chicago Center
02:07PM 43.4289 -88.5444 278° West 143 165 12,000  Level Chicago Center
02:08PM 43.4297 -88.5947 271° West 136 157 12,000  Level Chicago Center
02:09PM 43.4333 -88.6469 275° West 137 158 12,000  Level Chicago Center
02:10PM 43.4372 -88.6992 276° West 137 158 12,000  Level Chicago Center
02:11PM 43.4408 -88.7503 276° West 136 157 12,000  Level Chicago Center
02:12PM 43.4444 -88.8022 275° West 136 157 12,000 -60 Level Chicago Center
02:13PM 43.4483 -88.8642 275° West 136 157 11,900 -60 Descending Chicago Center
02:14PM 43.4522 -88.9161 276° West 137 158 11,900  Level Chicago Center
02:15PM 43.4553 -88.9664 275° West 134 154 11,900  Level Chicago Center
02:16PM 43.4586 -89.0167 275° West 132 152 11,900  Level Chicago Center
02:17PM 43.4622 -89.0681 276° West 134 154 11,900  Level Chicago Center
02:19PM 43.4661 -89.1278 275° West 132 152 11,900  Level Chicago Center
02:20PM 43.4692 -89.1778 275° West 131 151 11,900  Level Chicago Center
02:21PM 43.4725 -89.2292 275° West 133 153 11,900  Level Chicago Center
02:22PM 43.4758 -89.2797 275° West 133 153 11,900  Level Chicago Center
02:23PM 43.4789 -89.3311 275° West 134 154 11,900  Level Chicago Center
02:24PM 43.4825 -89.3800 276° West 131 151 11,900  Level Chicago Center
02:25PM 43.4850 -89.4400 273° West 130 150 11,900  Level Chicago Center
02:26PM 43.4878 -89.4889 274° West 128 147 11,900  Level Chicago Center
02:27PM 43.4922 -89.5361 277° West 125 144 11,900  Level Chicago Center
02:28PM 43.4950 -89.5850 274° West 127 146 11,900  Level Chicago Center
02:29PM 43.4975 -89.6342 274° West 129 148 11,900  Level Chicago Center
02:30PM 43.5011 -89.6814 276° West 126 145 11,900  Level Chicago Center
02:31PM 43.5047 -89.7394 275° West 126 145 11,900  Level Chicago Center
02:32PM 43.5072 -89.7881 274° West 127 146 11,900  Level Chicago Center
02:33PM 43.5103 -89.8364 275° West 127 146 11,900  Level Chicago Center
02:34PM 43.5117 -89.8858 272° West 129 148 11,900  Level Chicago Center
02:35PM 43.5147 -89.9347 275° West 130 150 11,900  Level Chicago Center
02:36PM 43.5192 -89.9933 276° West 129 148 11,900  Level Chicago Center
02:37PM 43.5211 -90.0419 273° West 128 147 11,900  Level Chicago Center
02:38PM 43.5239 -90.0906 275° West 128 147 11,900  Level Chicago Center
02:39PM 43.5275 -90.1417 276° West 132 152 11,900  Level Chicago Center
02:40PM 43.5300 -90.1931 274° West 134 154 11,900  Level Chicago Center
02:41PM 43.5322 -90.2450 273° West 137 158 11,900  Level Chicago Center
02:42PM 43.5358 -90.3058 275° West 140 161 12,000  Climbing Chicago Center
02:43PM 43.5383 -90.3578 274° West 139 160 12,000  Level Chicago Center
02:45PM 43.5444 -90.4653 275° West 142 163 12,000  Level Chicago Center
02:46PM 43.5483 -90.5289 275° West 141 162 12,000  Level Chicago Center
02:48PM 43.5539 -90.5811 278° West 139 160 12,000  Level Chicago Center
02:49PM 43.5611 -90.6319 281° West 137 158 12,000  Level Chicago Center
02:50PM 43.5686 -90.6825 282° West 137 158 12,000  Level Chicago Center
02:51PM 43.5747 -90.7319 280° West 135 155 12,000  Level Chicago Center
02:52PM 43.5839 -90.7928 282° West 135 155 12,000  Level Chicago Center
02:53PM 43.5908 -90.8431 281° West 134 154 12,000  Level Chicago Center
02:54PM 43.5972 -90.8922 280° West 133 153 12,000 -240 Level Chicago Center
02:55PM 43.6042 -90.9422 281° West 133 153 11,600 -720 Descending Chicago Center
02:56PM 43.6119 -91.0014 280° West 150 173 10,600 -1,080 Descending Chicago Center
02:57PM 43.6225 -91.0747 281° West 162 186 9,400 -1,080 Descending Chicago Center
02:58PM 43.6308 -91.1369 281° West 165 190 8,400 -1,080 Descending Chicago Center
02:59PM 43.6411 -91.2183 280° West 164 189 7,000 -1,020 Descending Minneapolis Center
03:00PM 43.6494 -91.2789 281° West 167 192 6,100 -960 Descending Minneapolis Center
03:01PM 43.6592 -91.3447 282° West 168 193 5,100 -900 Descending Minneapolis Center
03:02PM 43.6675 -91.4058 281° West 161 185 4,300 -720 Descending Minneapolis Center
03:03PM 43.6747 -91.4606 280° West 142 163 3,700 -720 Descending Minneapolis Center
03:04PM 43.6819 -91.5114 281° West 137 158 2,900 -780 Descending Minneapolis Center